Change the Weather History Date:

Sunday, June 30, 2013

  Actual Average Record
Temperature  
Mean Temperature 72 °F -  
Max Temperature 85 °F 93 °F 106 °F (1974)
Min Temperature 61 °F 63 °F 53 °F (1983)
Cooling Degree Days 8    
Growing Degree Days 22 (Base 50)    
Moisture  
Dew Point 54 °F    
Average Humidity 54    
Maximum Humidity 89    
Minimum Humidity 30    
Precipitation  
Precipitation 0.00 in - - ()
Sea Level Pressure  
Sea Level Pressure 30.11 in    
Wind  
Wind Speed 9 mph (NE)    
Max Wind Speed 18 mph    
Max Gust Speed 25 mph    
Visibility 10 miles    
Events      
Averages and records for this station are not official NWS values.
T = Trace of Precipitation, MM = Missing Value Source: NWS Daily Summary

Daily Weather History Graph

Daily Weather History Graph

Search for Another Location

Airport or City:

Trip Planner

Search our weather history database for the weather conditions in past years. The results will help you decide how hot, cold, wet, or windy it might be!

Date:

Astronomy

Jun. 30, 2013 Rise Set
Actual Time 6:28 AM CDT 9:04 PM CDT
Civil Twilight 5:58 AM CDT 9:35 PM CDT
Nautical Twilight 5:20 AM CDT 10:13 PM CDT
Astronomical Twilight 4:38 AM CDT 10:55 PM CDT
Moon 1:19 AM CDT (6/30) 2:28 PM CDT (6/30)
Length of Visible Light 15h 37m
Length of Day
14h 36m
Last Quarter, 45% of the Moon is Illuminated
Jun 30
Last Quarter
Jul 8
New
Jul 15
First Quarter
Jul 22
Full
Jul 29
Last Quarter

Hourly Weather History & Observations

Time (CDT) Temp. Dew Point Humidity Pressure Visibility Wind Dir Wind Speed Gust Speed Precip Events Conditions
12:15 AM 76.1 °F 54.5 °F 47% 30.06 in 10.0 mi ENE 12.7 mph - N/A   Clear
12:35 AM 75.6 °F 54.5 °F 48% 30.06 in 10.0 mi ENE 11.5 mph - N/A   Clear
12:55 AM 74.1 °F 55.4 °F 52% 30.07 in 10.0 mi ENE 9.2 mph - N/A   Clear
1:15 AM 73.6 °F 55.4 °F 53% 30.08 in 10.0 mi East 10.4 mph - N/A   Scattered Clouds
1:35 AM 73.0 °F 55.4 °F 54% 30.07 in 10.0 mi ENE 9.2 mph - N/A   Scattered Clouds
1:55 AM 72.0 °F 54.9 °F 55% 30.06 in 10.0 mi East 8.1 mph - N/A   Mostly Cloudy
2:15 AM 71.4 °F 54.5 °F 55% 30.08 in 10.0 mi East 4.6 mph - N/A   Scattered Clouds
2:35 AM 70.5 °F 54.7 °F 57% 30.11 in 10.0 mi North 5.8 mph - N/A   Mostly Cloudy
2:55 AM 69.3 °F 54.9 °F 60% 30.10 in 5.0 mi East 16.1 mph 23.0 mph N/A   Mostly Cloudy
3:15 AM 65.7 °F 56.8 °F 73% 30.12 in 10.0 mi East 9.2 mph - N/A   Scattered Clouds
3:35 AM 64.4 °F 57.6 °F 78% 30.14 in 10.0 mi NNE 15.0 mph 21.9 mph N/A   Mostly Cloudy
3:55 AM 61.9 °F 58.1 °F 87% 30.10 in 2.5 mi ESE 12.7 mph - N/A   Overcast
4:15 AM 61.9 °F 57.9 °F 87% 30.11 in 7.0 mi ESE 9.2 mph - N/A   Mostly Cloudy
4:35 AM 62.4 °F 57.9 °F 85% 30.10 in 10.0 mi ESE 8.1 mph - N/A   Scattered Clouds
4:55 AM 62.6 °F 58.1 °F 85% 30.10 in 10.0 mi East 5.8 mph - N/A   Scattered Clouds
5:15 AM 62.8 °F 57.9 °F 84% 30.10 in 10.0 mi ESE 4.6 mph - N/A   Scattered Clouds
5:35 AM 62.2 °F 58.1 °F 86% 30.10 in 10.0 mi ESE 3.5 mph - N/A   Scattered Clouds
5:55 AM 62.6 °F 58.1 °F 85% 30.10 in 10.0 mi SE 3.5 mph - N/A   Scattered Clouds
6:15 AM 61.9 °F 58.6 °F 89% 30.10 in 10.0 mi SE 3.5 mph - N/A   Scattered Clouds
6:35 AM 62.1 °F 58.1 °F 87% 30.11 in 10.0 mi Calm Calm - N/A   Clear
6:55 AM 62.6 °F 58.1 °F 85% 30.11 in 10.0 mi Calm Calm - N/A   Clear
7:15 AM 63.0 °F 58.3 °F 85% 30.11 in 10.0 mi NE 3.5 mph - N/A   Clear
7:35 AM 63.5 °F 57.9 °F 82% 30.12 in 10.0 mi Calm Calm - N/A   Clear
7:55 AM 64.6 °F 59.4 °F 83% 30.12 in 10.0 mi Calm Calm - N/A   Scattered Clouds
8:15 AM 66.4 °F 59.4 °F 78% 30.12 in 10.0 mi NNE 4.6 mph - N/A   Mostly Cloudy
8:35 AM 69.3 °F 56.1 °F 63% 30.12 in 10.0 mi NE 6.9 mph - N/A   Mostly Cloudy
8:55 AM 70.2 °F 55.4 °F 59% 30.13 in 10.0 mi ENE 8.1 mph - N/A   Scattered Clouds
9:15 AM 70.3 °F 55.2 °F 59% 30.14 in 10.0 mi NE 8.1 mph - N/A   Scattered Clouds
9:35 AM 71.6 °F 55.0 °F 56% 30.14 in 10.0 mi ENE 10.4 mph - N/A   Mostly Cloudy
9:55 AM 72.0 °F 53.6 °F 52% 30.15 in 10.0 mi ENE 8.1 mph - N/A   Overcast
10:15 AM 72.5 °F 54.7 °F 53% 30.16 in 10.0 mi NE 6.9 mph - N/A   Overcast
10:35 AM 73.6 °F 53.6 °F 50% 30.15 in 10.0 mi ENE 10.4 mph - N/A   Overcast
10:55 AM 74.7 °F 54.1 °F 49% 30.15 in 10.0 mi ENE 9.2 mph - N/A   Overcast
11:15 AM 75.7 °F 54.1 °F 47% 30.15 in 10.0 mi NNE 9.2 mph 16.1 mph N/A   Overcast
11:35 AM 75.9 °F 54.5 °F 47% 30.15 in 10.0 mi NE 8.1 mph - N/A   Overcast
11:55 AM 77.2 °F 54.7 °F 46% 30.15 in 10.0 mi ENE 10.4 mph - N/A   Scattered Clouds
12:15 PM 77.2 °F 52.9 °F 43% 30.14 in 10.0 mi NNE 4.6 mph - N/A   Clear
12:35 PM 78.1 °F 53.2 °F 42% 30.14 in 10.0 mi NE 12.7 mph 16.1 mph N/A   Scattered Clouds
12:55 PM 78.8 °F 52.2 °F 39% 30.12 in 10.0 mi ENE 13.8 mph - N/A   Scattered Clouds
1:15 PM 80.2 °F 52.3 °F 38% 30.12 in 10.0 mi NNE 10.4 mph 16.1 mph N/A   Clear
1:35 PM 80.8 °F 52.5 °F 37% 30.12 in 10.0 mi ENE 12.7 mph 18.4 mph N/A   Clear
1:55 PM 81.3 °F 52.0 °F 36% 30.11 in 10.0 mi ENE 10.4 mph 20.7 mph N/A   Clear
2:15 PM 81.9 °F 52.7 °F 36% 30.10 in 10.0 mi NE 11.5 mph - N/A   Clear
2:35 PM 82.6 °F 52.0 °F 35% 30.10 in 10.0 mi ENE 10.4 mph 16.1 mph N/A   Clear
2:55 PM 83.7 °F 51.6 °F 33% 30.09 in 10.0 mi ENE 10.4 mph 16.1 mph N/A   Clear
3:15 PM 83.5 °F 50.5 °F 32% 30.09 in 10.0 mi ENE 13.8 mph 24.2 mph N/A   Clear
3:35 PM 82.9 °F 50.5 °F 32% 30.09 in 10.0 mi NNE 9.2 mph 19.6 mph N/A   Clear
3:55 PM 84.2 °F 50.7 °F 31% 30.09 in 10.0 mi NE 13.8 mph - N/A   Clear
4:15 PM 84.0 °F 49.6 °F 30% 30.09 in 10.0 mi North 16.1 mph 25.3 mph N/A   Clear
4:35 PM 82.8 °F 49.1 °F 31% 30.09 in 10.0 mi North 11.5 mph 20.7 mph N/A   Clear
4:55 PM 83.1 °F 48.9 °F 30% 30.08 in 10.0 mi North 18.4 mph 24.2 mph N/A   Clear
5:15 PM 82.0 °F 48.4 °F 31% 30.09 in 10.0 mi NNE 12.7 mph 20.7 mph N/A   Scattered Clouds
5:35 PM 82.6 °F 47.8 °F 30% 30.09 in 10.0 mi North 15.0 mph 25.3 mph N/A   Mostly Cloudy
5:55 PM 82.0 °F 48.0 °F 30% 30.09 in 10.0 mi North 15.0 mph - N/A   Mostly Cloudy
6:15 PM 81.7 °F 48.4 °F 31% 30.08 in 10.0 mi North 13.8 mph - N/A   Mostly Cloudy
6:35 PM 81.5 °F 48.2 °F 31% 30.07 in 10.0 mi North 11.5 mph - N/A   Scattered Clouds
6:55 PM 79.9 °F 52.3 °F 38% 30.07 in 10.0 mi NW 16.1 mph 20.7 mph N/A   Scattered Clouds
7:15 PM 78.3 °F 54.9 °F 44% 30.07 in 10.0 mi NW 12.7 mph - N/A   Scattered Clouds
7:35 PM 78.6 °F 53.2 °F 41% 30.07 in 10.0 mi NNW 11.5 mph - N/A   Clear
7:55 PM 78.1 °F 53.2 °F 42% 30.07 in 10.0 mi NNW 8.1 mph - N/A   Clear
8:15 PM 77.4 °F 53.6 °F 44% 30.07 in 10.0 mi NNW 10.4 mph - N/A   Clear
8:35 PM 75.9 °F 54.3 °F 47% 30.08 in 10.0 mi NNW 9.2 mph - N/A   Clear
8:55 PM 74.5 °F 54.5 °F 50% 30.08 in 10.0 mi NNW 8.1 mph - N/A   Clear
9:15 PM 73.4 °F 54.7 °F 52% 30.09 in 10.0 mi NNW 5.8 mph - N/A   Clear
9:35 PM 71.6 °F 54.5 °F 55% 30.10 in 10.0 mi NW 6.9 mph - N/A   Clear
9:55 PM 70.7 °F 54.7 °F 57% 30.12 in 10.0 mi NNW 6.9 mph - N/A   Mostly Cloudy
10:15 PM 70.2 °F 55.4 °F 59% 30.13 in 10.0 mi NNE 5.8 mph - N/A   Scattered Clouds
10:35 PM 70.0 °F 52.7 °F 54% 30.14 in 10.0 mi ENE 5.8 mph - N/A   Scattered Clouds
10:55 PM 71.2 °F 51.8 °F 50% 30.15 in 10.0 mi ESE 5.8 mph - N/A   Mostly Cloudy
11:15 PM 68.9 °F 54.5 °F 60% 30.15 in 10.0 mi East 6.9 mph - N/A   Mostly Cloudy
11:35 PM 67.8 °F 54.0 °F 61% 30.16 in 10.0 mi East 5.8 mph - N/A   Scattered Clouds
11:55 PM 66.7 °F 53.6 °F 63% 30.16 in 10.0 mi ENE 3.5 mph - N/A   Clear